Location: El Mouella
(16.4949°N, 9.1594°W)
Time: 19:31:16
(UTC+00:00)

STARLINK-60 - Pass Details

Date: 03 October 2020
Orbit: 350 x 360 km, 53.0° (Epoch: 20 October)

Event Time Altitude Azimuth Distance (km) Brightness Sun altitude
Rises 19:37:09 0° 204° (SSW) 2,167 7.0 -18.4°
Reaches altitude 10° 19:39:14 10° 197° (SSW) 1,319 5.7 -18.9°
Enters shadow 19:40:28 21° 184° (S) 853 4.6 -19.2°
